Airfield :
LOGIN :

Register | Disclaimer

   EN    FR    IT 

 










Legend :    VFR   Marginal VFR   IFR   Intensive IFR   Very Intensive IFR
Visi :
Ceiling :
>= 8 km
>= 3000ft
5 to 8 km
1000 to 3000 ft
1500m to 5 km
500 to 1000 ft
800 to 1500m
200 to 500 ft
< 800m
< 200 ft
Symbols :   Thunderstorms  Fog  Heavy snow  Heavy precipitations  Wind > 20 kt
SIGMETs :     Misc.  Thunderstorms  Icing  Turbulence  Mountain Waves  Volcanic Ashes







- Airport Elevation : 137 ft


LIPS - Istrana AFB Treviso

CURRENT METAR :
  • 160055Z 36003KT CAVOK 22/18 Q1017 RMK SKC VIS MIN 9999 WIND THR26 36003KT WIND THR08 36003KT BLU

EXPIRED METARs :
  • 152355Z 03004KT 9999 BKN090 22/17 Q1017 RMK BKN VIS MIN 9999 WIND THR26 03003KT WIND THR08 03003KT BLU
  • 152255Z 03004KT 9999 SCT070 23/19 Q1017 RMK SCT VIS MIN 9999 WIND THR26 00000KT WIND THR08 02004KT BLU

TAF TAF LIPS
Valid from the 16 at 00:00 until the 16 at 09:00 UTC


152300Z 1600/1609 VRB04KT 9999 SCT080
No reported NOTAMs for that airfield.



MET'MAP, your aeronautical weather chart ! - Copyright ORBIFLY December 2007 - Disclaimer

ORBIFLY MET'MAP TEAM :

Programming & Development : Alexandra Zaïnal
Concept & Development : Baudouin d'Aumeries
Co-Development & Prog : Marc-Olivier Méhu
Technical & hardware support : Manuel Goepfert

Contact : metmap@orbifly.com




SOURCES & CREDITS :

   NOAA